Orlando International, FL

5:28 AM EDT on September 24, 2017 (GMT -0400)
Orlando International

Weather History for KMCO - July, 2014

Change the Weather History Date:

Wednesday, July 16, 2014

  Actual Average Record
Temperature  
Mean Temperature 80 °F 83 °F  
Max Temperature 86 °F 92 °F 100 °F (1932)
Min Temperature 73 °F 74 °F 66 °F (1893)
Degree Days  
Heating Degree Days 0 0  
Month to date heating degree days 0 0  
Since 1 June heating degree days 0 0  
Since 1 July heating degree days 0 0  
Cooling Degree Days 15 18  
Month to date cooling degree days 282 280  
Year to date cooling degree days 1719 1571  
Since 1 June cooling degree days 785 770  
Growing Degree Days 30 (Base 50)    
Moisture  
Dew Point 74 °F    
Average Humidity 87    
Maximum Humidity 100    
Minimum Humidity 74    
Precipitation  
Precipitation 0.58 in 0.22 in 1.73 in (1924)
Month to date precipitation 6.79 3.70  
Year to date precipitation 28.78 25.91  
Sea Level Pressure  
Sea Level Pressure 29.96 in    
Wind  
Wind Speed 8 mph (SW)    
Max Wind Speed 31 mph    
Max Gust Speed 40 mph    
Visibility 9 miles    
Events Fog , Rain , Thunderstorm    
T = Trace of Precipitation, MM = Missing Value Source: NWS Daily Summary

Daily Weather History Graph

Daily Weather History Graph

Search for Another Location

Airport or City:

Trip Planner

Search our weather history database for the weather conditions in past years. The results will help you decide how hot, cold, wet, or windy it might be!

Date:

Astronomy

Jul. 16, 2014 Rise Set
Actual Time 6:38 AM EDT 8:24 PM EDT
Civil Twilight 6:12 AM EDT 8:50 PM EDT
Nautical Twilight 5:40 AM EDT 9:21 PM EDT
Astronomical Twilight 5:07 AM EDT 9:55 PM EDT
Moon 11:37 PM EDT (7/16) 11:12 AM EDT (7/16)
Length of Visible Light 14h 38m
Length of Day
13h 45m
Waning Gibbous, 76% of the Moon is Illuminated
Jul 16
Waning Gibbous
Jul 18
Last Quarter
Jul 26
New
Aug 3
First Quarter
Aug 10
Full

Hourly Weather History & Observations

Time (EDT) Temp. Heat Index Dew Point Humidity Pressure Visibility Wind Dir Wind Speed Gust Speed Precip Events Conditions
12:53 AM 75.0 °F - 75.0 °F 100% 29.99 in 10.0 mi SSW 5.8 mph - 0.01 in   Overcast
1:53 AM 75.0 °F - 75.0 °F 100% 29.96 in 10.0 mi SSW 5.8 mph - N/A   Overcast
2:53 AM 75.0 °F - 75.0 °F 100% 29.94 in 10.0 mi South 5.8 mph - N/A   Overcast
3:53 AM 75.0 °F - 73.0 °F 94% 29.93 in 10.0 mi South 5.8 mph - N/A   Overcast
4:53 AM 75.0 °F - 73.0 °F 94% 29.94 in 10.0 mi South 5.8 mph - N/A   Scattered Clouds
5:53 AM 73.9 °F - 72.0 °F 93% 29.94 in 10.0 mi South 8.1 mph - N/A   Mostly Cloudy
6:53 AM 73.0 °F - 72.0 °F 96% 29.96 in 10.0 mi South 3.5 mph - N/A   Mostly Cloudy
7:53 AM 77.0 °F - 73.9 °F 90% 29.97 in 10.0 mi SSW 5.8 mph - N/A   Mostly Cloudy
8:53 AM 80.1 °F 85.1 °F 75.0 °F 85% 29.97 in 10.0 mi South 9.2 mph - N/A   Mostly Cloudy
9:53 AM 82.0 °F 87.9 °F 73.9 °F 76% 29.97 in 10.0 mi SSW 9.2 mph - N/A   Mostly Cloudy
10:53 AM 84.9 °F 94.1 °F 75.9 °F 74% 29.95 in 10.0 mi SSW 9.2 mph - N/A   Mostly Cloudy
11:10 AM 86.0 °F 95.1 °F 75.0 °F 70% 29.96 in 10.0 mi WSW 6.9 mph - N/A Thunderstorm Thunderstorm
11:32 AM 77.0 °F - 72.0 °F 84% 30.00 in 5.0 mi West 25.3 mph 40.3 mph 0.00 in Rain , Thunderstorm Thunderstorms and Rain
11:37 AM 73.9 °F - 72.0 °F 93% 30.00 in 0.0 mi WNW 25.3 mph 40.3 mph 0.07 in Fog , Rain , Thunderstorm Heavy Thunderstorms and Rain
11:50 AM 73.4 °F - 73.4 °F 100% 30.01 in 1.0 mi West 10.4 mph - 0.42 in Rain , Thunderstorm Heavy Thunderstorms and Rain
11:53 AM 73.0 °F - 73.0 °F 100% 30.00 in 1.0 mi West 9.2 mph - 0.44 in Rain , Thunderstorm Heavy Thunderstorms and Rain
12:00 PM 73.9 °F - 73.9 °F 100% 30.00 in 2.5 mi West 9.2 mph - 0.05 in Rain , Thunderstorm Thunderstorms and Rain
12:09 PM 73.9 °F - 73.9 °F 100% 30.00 in 6.0 mi West 10.4 mph - 0.05 in Rain , Thunderstorm Light Thunderstorms and Rain
12:42 PM 75.0 °F - 73.9 °F 96% 29.98 in 8.0 mi West 8.1 mph - 0.08 in Rain Light Rain
12:53 PM 73.9 °F - 73.0 °F 97% 29.99 in 10.0 mi West 6.9 mph - 0.09 in Rain Light Rain
1:53 PM 75.9 °F - 73.9 °F 94% 29.99 in 10.0 mi SW 8.1 mph - 0.02 in Rain Light Rain
2:53 PM 75.9 °F - 73.9 °F 94% 29.96 in 10.0 mi SSW 6.9 mph - 0.03 in Rain Light Rain
3:53 PM 77.0 °F - 75.0 °F 94% 29.95 in 10.0 mi SSW 8.1 mph - 0.00 in   Overcast
4:14 PM 77.0 °F - 75.0 °F 94% 29.94 in 10.0 mi South 6.9 mph - N/A   Overcast
4:53 PM 78.1 °F - 73.9 °F 87% 29.93 in 10.0 mi SW 9.2 mph - N/A   Overcast
5:53 PM 78.1 °F - 75.0 °F 90% 29.91 in 10.0 mi SSW 11.5 mph - N/A   Overcast
6:53 PM 79.0 °F - 75.0 °F 88% 29.93 in 10.0 mi SW 9.2 mph - N/A   Overcast
7:53 PM 78.1 °F - 75.0 °F 90% 29.94 in 10.0 mi SSW 8.1 mph - N/A   Overcast
8:53 PM 75.9 °F - 75.0 °F 97% 29.93 in 10.0 mi South 4.6 mph - N/A   Overcast
9:53 PM 75.9 °F - 75.0 °F 97% 29.94 in 10.0 mi South 5.8 mph - N/A   Mostly Cloudy
10:53 PM 75.9 °F - 75.0 °F 97% 29.96 in 10.0 mi South 6.9 mph - N/A   Mostly Cloudy
11:26 PM 75.9 °F - 73.9 °F 94% 29.95 in 10.0 mi South 8.1 mph - N/A   Scattered Clouds
11:53 PM 75.9 °F - 73.9 °F 94% 29.96 in 10.0 mi SSW 8.1 mph - N/A   Scattered Clouds